Monroe, WI

12:57 PM CDT on June 23, 2017 (GMT -0500)
Monroe Municipal

Weather History for KEFT - December, 2013

Change the Weather History Date:

Sunday, December 29, 2013

  Actual Average Record
Temperature  
Mean Temperature 18 °F -  
Max Temperature 38 °F 0 °F 46 °F (2006)
Min Temperature -2 °F - -2 °F (2013)
Degree Days  
Heating Degree Days 46    
Moisture  
Dew Point 16 °F    
Average Humidity 83    
Maximum Humidity 100    
Minimum Humidity 67    
Precipitation  
Precipitation 0.00 in - - ()
Sea Level Pressure  
Sea Level Pressure 29.95 in    
Wind  
Wind Speed 13 mph (NW)    
Max Wind Speed 21 mph    
Max Gust Speed 31 mph    
Visibility 10 miles    
Events      
Averages and records for this station are not official NWS values.
T = Trace of Precipitation, MM = Missing Value Source: NWS Daily Summary

Daily Weather History Graph

Daily Weather History Graph

Search for Another Location

Airport or City:

Trip Planner

Search our weather history database for the weather conditions in past years. The results will help you decide how hot, cold, wet, or windy it might be!

Date:

Astronomy

Dec. 29, 2013 Rise Set
Actual Time 7:28 AM CST 4:33 PM CST
Civil Twilight 6:55 AM CST 5:05 PM CST
Nautical Twilight 6:20 AM CST 5:40 PM CST
Astronomical Twilight 5:46 AM CST 6:15 PM CST
Moon 4:09 AM CST (12/29) 2:12 PM CST (12/29)
Length of Visible Light 10h 09m
Length of Day
9h 05m
Waning Crescent, 11% of the Moon is Illuminated
Dec 29
Waning Crescent
Jan 1
New
Jan 7
First Quarter
Jan 15
Full
Jan 23
Last Quarter

Hourly Weather History & Observations

Time (CST) Temp. Windchill Dew Point Humidity Pressure Visibility Wind Dir Wind Speed Gust Speed Precip Events Conditions
12:15 AM 38.1 °F 28.1 °F 29.7 °F 72% 29.72 in 10.0 mi SW 19.6 mph 26.5 mph N/A   Clear
12:35 AM 37.8 °F 28.0 °F 29.7 °F 73% 29.71 in 10.0 mi SW 18.4 mph 24.2 mph N/A   Clear
12:55 AM 36.7 °F 27.6 °F 29.3 °F 75% 29.71 in 10.0 mi SW 15.0 mph - N/A   Clear
1:15 AM 35.8 °F 27.8 °F 29.1 °F 77% 29.72 in 10.0 mi SW 11.5 mph - N/A   Clear
1:35 AM 34.7 °F 27.5 °F 28.6 °F 78% 29.74 in 10.0 mi SW 9.2 mph - N/A   Clear
1:55 AM 34.2 °F 26.2 °F 28.4 °F 79% 29.74 in 10.0 mi WSW 10.4 mph - N/A   Clear
2:15 AM 34.0 °F 24.6 °F 28.4 °F 80% 29.74 in 10.0 mi WSW 13.8 mph - N/A   Clear
2:35 AM 34.0 °F 23.8 °F 28.6 °F 81% 29.75 in 10.0 mi West 16.1 mph - N/A   Clear
2:55 AM 33.8 °F 24.8 °F 32.2 °F 94% 29.75 in 10.0 mi West 12.7 mph - N/A   Scattered Clouds
3:20 AM 33.4 °F 24.8 °F 33.1 °F 99% 29.75 in 10.0 mi West 11.5 mph - N/A   Overcast
3:35 AM 33.8 °F 25.8 °F 33.8 °F 100% 29.75 in 10.0 mi WNW 10.4 mph - N/A   Overcast
3:55 AM 34.0 °F 26.6 °F 34.0 °F 100% 29.76 in 10.0 mi WNW 9.2 mph - N/A   Overcast
4:15 AM 34.2 °F 26.2 °F 34.2 °F 100% 29.76 in 10.0 mi West 10.4 mph - N/A   Overcast
4:35 AM 34.2 °F 26.2 °F 34.2 °F 100% 29.76 in 10.0 mi WNW 10.4 mph - N/A   Overcast
4:55 AM 34.3 °F 26.5 °F 34.3 °F 100% 29.76 in 10.0 mi WNW 10.4 mph - N/A   Overcast
5:15 AM 34.3 °F 25.9 °F 34.3 °F 100% 29.77 in 10.0 mi NW 11.5 mph 19.6 mph N/A   Overcast
5:35 AM 33.8 °F 23.9 °F 33.8 °F 100% 29.78 in 10.0 mi NNW 15.0 mph 26.5 mph N/A   Overcast
5:55 AM 33.4 °F 24.3 °F 33.4 °F 100% 29.79 in 10.0 mi NNW 12.7 mph 20.7 mph N/A   Overcast
6:15 AM 32.2 °F 22.3 °F 32.2 °F 100% 29.80 in 10.0 mi NW 13.8 mph 21.9 mph N/A   Overcast
6:35 AM 31.6 °F 20.0 °F 31.6 °F 100% 29.82 in 10.0 mi NNW 18.4 mph 24.2 mph N/A   Overcast
6:55 AM 30.7 °F 20.4 °F 30.7 °F 100% 29.83 in 10.0 mi NNW 13.8 mph 23.0 mph N/A   Overcast
7:15 AM 30.0 °F 18.3 °F 30.0 °F 100% 29.84 in 10.0 mi NNW 17.3 mph 27.6 mph N/A   Overcast
7:35 AM 28.4 °F 16.2 °F 28.4 °F 100% 29.85 in 7.0 mi NNW 17.3 mph 25.3 mph N/A   Overcast
7:55 AM 27.5 °F 16.3 °F 27.5 °F 100% 29.86 in 5.0 mi NNW 13.8 mph 26.5 mph N/A   Overcast
8:15 AM 27.0 °F 13.2 °F 27.0 °F 100% 29.88 in 4.0 mi NNW 20.7 mph 28.8 mph N/A   Overcast
8:35 AM 25.7 °F 12.7 °F 25.7 °F 100% 29.89 in 4.0 mi NNW 17.3 mph 27.6 mph N/A   Overcast
8:55 AM 24.8 °F 10.3 °F 24.8 °F 100% 29.90 in 10.0 mi North 20.7 mph 31.1 mph N/A   Overcast
9:15 AM 24.4 °F 11.9 °F 24.4 °F 100% 29.91 in 10.0 mi North 15.0 mph 21.9 mph N/A   Overcast
9:35 AM 23.9 °F 12.3 °F 23.9 °F 100% 29.93 in 10.0 mi NNW 12.7 mph 23.0 mph N/A   Overcast
9:55 AM 23.4 °F 10.6 °F 23.4 °F 100% 29.94 in 10.0 mi NNW 15.0 mph 24.2 mph N/A   Overcast
10:20 AM 22.5 °F 8.9 °F 22.5 °F 100% 29.95 in 10.0 mi NNW 16.1 mph 26.5 mph N/A   Overcast
10:35 AM 21.7 °F 8.0 °F 21.7 °F 100% 29.95 in 10.0 mi NNW 16.1 mph 26.5 mph N/A   Overcast
10:55 AM 21.9 °F 9.8 °F 21.2 °F 97% 29.96 in 10.0 mi NNW 12.7 mph 25.3 mph N/A   Overcast
11:15 AM 22.3 °F 9.7 °F 21.9 °F 99% 29.96 in 10.0 mi NNW 13.8 mph 18.4 mph N/A   Overcast
11:35 AM 22.1 °F 11.3 °F 21.9 °F 99% 29.96 in 10.0 mi NNW 10.4 mph 21.9 mph N/A   Overcast
11:55 AM 21.9 °F 11.7 °F 20.8 °F 96% 29.96 in 10.0 mi NNW 9.2 mph 17.3 mph N/A   Overcast
12:15 PM 22.6 °F 10.1 °F 16.9 °F 79% 29.96 in 10.0 mi NNW 13.8 mph 23.0 mph N/A   Overcast
12:35 PM 22.1 °F 8.9 °F 14.0 °F 71% 29.97 in 10.0 mi NNW 15.0 mph 23.0 mph N/A   Overcast
12:55 PM 21.2 °F 8.9 °F 12.9 °F 70% 29.98 in 10.0 mi NNW 12.7 mph 19.6 mph N/A   Overcast
1:15 PM 21.2 °F 9.5 °F 12.0 °F 68% 29.98 in 10.0 mi NNW 11.5 mph 19.6 mph N/A   Overcast
1:35 PM 21.6 °F 8.8 °F 13.1 °F 70% 29.98 in 10.0 mi NW 13.8 mph 19.6 mph N/A   Overcast
1:55 PM 20.7 °F 9.5 °F 12.0 °F 69% 29.99 in 10.0 mi NNW 10.4 mph 19.6 mph N/A   Overcast
2:15 PM 20.7 °F 11.0 °F 11.3 °F 67% 29.99 in 10.0 mi NNW 8.1 mph 18.4 mph N/A   Overcast
2:35 PM 20.7 °F 8.2 °F 11.7 °F 68% 30.00 in 10.0 mi NW 12.7 mph 20.7 mph N/A   Overcast
2:55 PM 19.9 °F 7.3 °F 11.8 °F 71% 30.00 in 10.0 mi NW 12.7 mph 19.6 mph N/A   Overcast
3:15 PM 19.2 °F 7.0 °F 11.7 °F 72% 30.01 in 10.0 mi NNW 11.5 mph 19.6 mph N/A   Overcast
3:35 PM 18.5 °F 6.8 °F 10.8 °F 72% 30.02 in 10.0 mi NW 10.4 mph 16.1 mph N/A   Overcast
3:55 PM 17.6 °F 6.4 °F 9.9 °F 72% 30.03 in 10.0 mi NW 9.2 mph 19.6 mph N/A   Overcast
4:15 PM 16.3 °F 2.1 °F 8.6 °F 72% 30.05 in 10.0 mi NW 13.8 mph 19.6 mph N/A   Overcast
4:35 PM 15.4 °F 1.6 °F 7.7 °F 71% 30.05 in 10.0 mi NW 12.7 mph 19.6 mph N/A   Overcast
4:55 PM 14.5 °F -0.2 °F 7.0 °F 72% 30.06 in 10.0 mi NW 13.8 mph 20.7 mph N/A   Overcast
5:15 PM 13.3 °F -1.1 °F 5.9 °F 72% 30.07 in 10.0 mi NW 12.7 mph 18.4 mph N/A   Overcast
5:35 PM 12.7 °F -1.8 °F 5.2 °F 72% 30.07 in 10.0 mi NW 12.7 mph 18.4 mph N/A   Overcast
5:55 PM 11.5 °F -4.1 °F 3.9 °F 72% 30.09 in 10.0 mi NW 13.8 mph 21.9 mph N/A   Overcast
6:15 PM 10.9 °F -4.7 °F 3.6 °F 72% 30.10 in 10.0 mi WNW 13.8 mph - N/A   Overcast
6:35 PM 10.2 °F -3.5 °F 3.0 °F 73% 30.10 in 10.0 mi NW 10.4 mph 18.4 mph N/A   Overcast
6:55 PM 9.3 °F -4.6 °F 2.1 °F 73% 30.12 in 10.0 mi NW 10.4 mph 18.4 mph N/A   Overcast
7:15 PM 7.9 °F -5.5 °F 0.5 °F 72% 30.13 in 10.0 mi NNW 9.2 mph - N/A   Mostly Cloudy
7:35 PM 7.0 °F -7.5 °F 0.1 °F 74% 30.13 in 10.0 mi NW 10.4 mph 16.1 mph N/A   Mostly Cloudy
7:55 PM 6.8 °F -5.9 °F 0.3 °F 75% 30.14 in 10.0 mi NNW 8.1 mph - N/A   Overcast
8:15 PM 6.8 °F -4.8 °F 0.5 °F 75% 30.14 in 10.0 mi NW 6.9 mph - N/A   Overcast
8:35 PM 5.5 °F -10.9 °F -1.7 °F 72% 30.15 in 10.0 mi NW 12.7 mph 19.6 mph N/A   Overcast
8:55 PM 4.3 °F -9.0 °F -2.9 °F 72% 30.15 in 10.0 mi NW 8.1 mph 16.1 mph N/A   Overcast
9:15 PM 3.0 °F -10.5 °F -4.2 °F 72% 30.16 in 10.0 mi NW 8.1 mph - N/A   Scattered Clouds
9:40 PM 1.9 °F -12.9 °F -5.8 °F 70% 30.15 in 10.0 mi NNW 9.2 mph - N/A   Clear
9:55 PM 1.2 °F -10.1 °F -6.3 °F 71% 30.16 in 10.0 mi NNW 5.8 mph - N/A   Clear
10:15 PM 0.5 °F -12.3 °F -6.7 °F 72% 30.17 in 10.0 mi NNW 6.9 mph - N/A   Clear
10:35 PM -0.0 °F -13.0 °F -7.4 °F 71% 30.17 in 10.0 mi NW 6.9 mph - N/A   Clear
10:55 PM -0.6 °F -13.6 °F -8.0 °F 71% 30.18 in 10.0 mi NW 6.9 mph - N/A   Clear
11:15 PM -1.3 °F -14.5 °F -8.5 °F 72% 30.19 in 10.0 mi NW 6.9 mph - N/A   Clear
11:30 PM -1.5 °F -14.7 °F -8.7 °F 71% 30.19 in 10.0 mi NW 6.9 mph - N/A   Clear
11:55 PM -2.4 °F -14.4 °F -10.3 °F 69% 30.19 in 10.0 mi NNW 5.8 mph - N/A   Clear